Location: Arclight Observatory
(36.5667°N, 87.3333°W)
Time: 07:29:42
(UTC-05:00)

HST - Visible Passes

Search period start: 17 April 2014 00:00
Search period end: 27 April 2014 00:00
Orbit: 549 x 553 km, 28.5° (Epoch: 16 April)

Date Brightness Start Highest point End Pass type
(mag) Time Alt. Az. Time Alt. Az. Time Alt. Az.
17 Apr 2.3 20:18:59 10° SW 20:22:10 21° SSE 20:23:59 16° SE visible
17 Apr 3.6 21:59:35 10° WSW 21:59:36 10° WSW 21:59:36 10° WSW visible
18 Apr 2.2 20:12:16 10° SW 20:15:37 23° S 20:18:05 14° SE visible
18 Apr 3.4 21:53:06 10° WSW 21:53:41 13° SW 21:53:41 13° SW visible
19 Apr 2.1 20:05:37 10° SW 20:09:04 25° S 20:12:06 12° ESE visible
19 Apr 3.1 21:46:39 10° WSW 21:47:42 15° SW 21:47:42 15° SW visible
20 Apr 2.1 19:59:01 10° SW 20:02:32 26° S 20:06:04 10° ESE visible
20 Apr 3.0 21:40:15 10° WSW 21:41:39 17° SW 21:41:39 17° SW visible
21 Apr 2.1 19:52:27 10° WSW 19:56:00 27° S 19:59:32 10° ESE visible
21 Apr 2.9 21:33:54 10° WSW 21:35:34 17° SW 21:35:34 17° SW visible
22 Apr 2.9 21:27:40 10° WSW 21:29:28 16° SSW 21:29:28 16° SSW visible
23 Apr 3.0 21:21:35 10° SW 21:23:20 14° SSW 21:23:20 14° SSW visible
24 Apr 3.2 21:15:54 10° SW 21:17:10 11° SSW 21:17:13 11° SSW visible
